Location: Chervonnoye
(48.6000°N, 34.4000°E)
Time: 13:08:37
(UTC+00:00)

deb Kosmos-2237 - Pass Details

Date: 21 June 2021
Orbit: 850 x 1045 km, 71.0° (Epoch: 25 July)

Event Time Altitude Azimuth Distance (km) Brightness Sun altitude
Rises 19:10:05 0° 223° (SW) 3,566 ? -10.1°
Reaches altitude 10° 19:12:36 10° 228° (SW) 2,655 ? -10.4°
Maximum altitude 19:18:39 54° 305° (NW) 1,174 ? -10.9°
Drops below altitude 10° 19:25:03 10° 22° (NNE) 2,800 ? -11.5°
Sets 19:27:47 0° 27° (NNE) 3,776 ? -11.8°
